| time (UTC) | temp C | wind direction | speed KPH | gust KPH | rain 1hr cm | rain 24hr cm | rain mn cm | humidity % | barometer mb |
| 20260509000105 | 15 | 75 | 0.0 | 0.0 | 0.00 | 0.00 | 0.00 | 73 | 1011.7 |
| 20260508234610 | 15 | 75 | 0.0 | 0.0 | 0.00 | 0.00 | 0.00 | 68 | 1011.6 |
| 20260508233103 | 16 | 75 | 0.0 | 1.6 | 0.00 | 0.00 | 0.00 | 67 | 1011.7 |
| 20260508231600 | 16 | 75 | 0.0 | 1.6 | 0.00 | 0.00 | 0.00 | 65 | 1011.4 |
| 20260508230105 | 17 | 75 | 0.0 | 0.0 | 0.00 | 0.00 | 0.00 | 65 | 1011.2 |
| 20260508224507 | 17 | 75 | 0.0 | 8.0 | 0.00 | 0.00 | 0.00 | 62 | 1011.2 |
| 20260508223034 | 17 | 71 | 0.0 | 3.2 | 0.00 | 0.00 | 0.00 | 62 | 1011.2 |
| 20260508221542 | 17 | 71 | 1.6 | 3.2 | 0.00 | 0.00 | 0.00 | 61 | 1011.2 |
| 20260508220051 | 17 | 71 | 0.0 | 6.4 | 0.00 | 0.00 | 0.00 | 61 | 1011.2 |
| 20260508214559 | 18 | 88 | 1.6 | 8.0 | 0.00 | 0.00 | 0.00 | 62 | 1011.2 |
| 20260508213111 | 18 | 76 | 0.0 | 11.3 | 0.00 | 0.00 | 0.00 | 61 | 1011.5 |
| 20260508211602 | 17 | 78 | 0.0 | 4.8 | 0.00 | 0.00 | 0.00 | 61 | 1011.3 |
| 20260508210010 | 17 | 74 | 0.0 | 1.6 | 0.00 | 0.00 | 0.00 | 64 | 1011.3 |
| 20260508204537 | 17 | 78 | 3.2 | 11.3 | 0.00 | 0.00 | 0.00 | 59 | 1011.6 |
| 20260508203057 | 17 | 75 | 0.0 | 8.0 | 0.00 | 0.00 | 0.00 | 63 | 1011.7 |
| 20260508201609 | 17 | 78 | 4.8 | 14.5 | 0.00 | 0.00 | 0.00 | 60 | 1011.9 |
| 20260508200136 | 17 | 64 | 1.6 | 8.0 | 0.00 | 0.00 | 0.00 | 58 | 1012.0 |
| 20260508194524 | 18 | 113 | 0.0 | 4.8 | 0.00 | 0.00 | 0.00 | 60 | 1012.5 |
| 20260508193052 | 18 | 82 | 1.6 | 12.9 | 0.00 | 0.00 | 0.00 | 59 | 1012.6 |
| 20260508191556 | 18 | 88 | 1.6 | 12.9 | 0.00 | 0.00 | 0.00 | 59 | 1013.0 |
| 20260508190107 | 17 | 355 | 0.0 | 6.4 | 0.00 | 0.00 | 0.00 | 58 | 1013.0 |
| 20260508184604 | 17 | 76 | 3.2 | 12.9 | 0.00 | 0.00 | 0.00 | 55 | 1013.3 |
| 20260508183105 | 18 | 81 | 3.2 | 16.1 | 0.00 | 0.00 | 0.00 | 53 | 1013.5 |
| 20260508181525 | 18 | 153 | 0.0 | 14.5 | 0.00 | 0.00 | 0.00 | 58 | 1013.5 |
| 20260508180038 | 17 | 349 | 1.6 | 8.0 | 0.00 | 0.00 | 0.00 | 56 | 1013.7 |
| 20260508174559 | 17 | 21 | 1.6 | 8.0 | 0.00 | 0.00 | 0.00 | 58 | 1013.9 |
| 20260508173059 | 16 | 53 | 0.0 | 12.9 | 0.00 | 0.00 | 0.00 | 58 | 1014.3 |
| 20260508171601 | 16 | 67 | 1.6 | 8.0 | 0.00 | 0.00 | 0.00 | 56 | 1014.3 |
| 20260508170016 | 16 | 76 | 1.6 | 11.3 | 0.00 | 0.00 | 0.00 | 60 | 1014.7 |
| 20260508164544 | 15 | 69 | 0.0 | 6.4 | 0.00 | 0.00 | 0.00 | 59 | 1014.9 |
| 20260508163051 | 15 | 74 | 0.0 | 8.0 | 0.00 | 0.00 | 0.00 | 61 | 1015.3 |
| 20260508161557 | 15 | 67 | 3.2 | 9.7 | 0.00 | 0.00 | 0.00 | 63 | 1015.4 |
| 20260508160100 | 14 | 35 | 0.0 | 6.4 | 0.00 | 0.00 | 0.00 | 62 | 1015.5 |
| 20260508154558 | 13 | 78 | 1.6 | 6.4 | 0.00 | 0.00 | 0.00 | 61 | 1015.7 |
| 20260508153108 | 13 | 80 | 0.0 | 8.0 | 0.00 | 0.00 | 0.00 | 63 | 1015.9 |
| 20260508151508 | 13 | 333 | 1.6 | 4.8 | 0.00 | 0.00 | 0.00 | 65 | 1016.1 |
| 20260508150031 | 12 | 332 | 0.0 | 4.8 | 0.00 | 0.00 | 0.00 | 65 | 1016.0 |
| 20260508144551 | 11 | 331 | 0.0 | 3.2 | 0.00 | 0.00 | 0.00 | 76 | 1016.0 |
| 20260508143107 | 10 | 329 | 0.0 | 0.0 | 0.00 | 0.00 | 0.00 | 78 | 1016.2 |
| 20260508141512 | 9 | 329 | 0.0 | 0.0 | 0.00 | 0.00 | 0.00 | 83 | 1016.4 |
| 20260508140030 | 8 | 329 | 0.0 | 0.0 | 0.00 | 0.00 | 0.00 | 90 | 1016.6 |
| 20260508134552 | 7 | 329 | 0.0 | 0.0 | 0.00 | 0.00 | 0.00 | 94 | 1016.6 |
| 20260508133105 | 7 | 329 | 0.0 | 0.0 | 0.00 | 0.00 | 0.00 | 95 | 1016.7 |
| 20260508131524 | 6 | 329 | 0.0 | 0.0 | 0.00 | 0.00 | 0.00 | 95 | 1016.8 |
| 20260508130034 | 6 | 329 | 0.0 | 0.0 | 0.00 | 0.00 | 0.00 | 95 | 1016.7 |
| 20260508124545 | 6 | 329 | 0.0 | 0.0 | 0.00 | 0.03 | 0.00 | 95 | 1016.5 |
| 20260508123041 | 5 | 329 | 0.0 | 0.0 | 0.00 | 0.03 | 0.00 | 95 | 1016.5 |
| 20260508121605 | 5 | 329 | 0.0 | 0.0 | 0.00 | 0.03 | 0.00 | 95 | 1016.4 |
| 20260508120100 | 5 | 329 | 0.0 | 0.0 | 0.00 | 0.03 | 0.00 | 95 | 1016.1 |
| 20260508114555 | 5 | 329 | 0.0 | 0.0 | 0.00 | 0.15 | 0.00 | 95 | 1015.8 |
| 20260508113009 | 4 | 329 | 0.0 | 0.0 | 0.00 | 0.15 | 0.00 | 95 | 1015.7 |
| 20260508111549 | 4 | 329 | 0.0 | 0.0 | 0.00 | 0.15 | 0.00 | 94 | 1015.2 |
| 20260508110057 | 3 | 329 | 0.0 | 0.0 | 0.00 | 0.15 | 0.00 | 94 | 1015.1 |
| 20260508104547 | 4 | 329 | 0.0 | 0.0 | 0.00 | 0.66 | 0.00 | 94 | 1014.9 |
| 20260508103109 | 4 | 329 | 0.0 | 0.0 | 0.00 | 0.66 | 0.00 | 94 | 1014.6 |
| 20260508101556 | 4 | 329 | 0.0 | 0.0 | 0.00 | 0.66 | 0.00 | 94 | 1014.5 |
| 20260508100054 | 4 | 329 | 0.0 | 0.0 | 0.00 | 0.66 | 0.00 | 94 | 1014.1 |
| 20260508094620 | 4 | 329 | 0.0 | 0.0 | 0.00 | 0.66 | 0.00 | 94 | 1014.0 |
| 20260508093009 | 5 | 329 | 0.0 | 0.0 | 0.00 | 0.66 | 0.00 | 94 | 1013.8 |
| 20260508091532 | 5 | 329 | 0.0 | 0.0 | 0.00 | 0.66 | 0.00 | 94 | 1013.9 |
| 20260508090059 | 5 | 329 | 0.0 | 0.0 | 0.00 | 0.66 | 0.00 | 94 | 1013.7 |
| 20260508084555 | 5 | 329 | 0.0 | 0.0 | 0.00 | 0.66 | 0.00 | 94 | 1013.6 |
| 20260508083126 | 5 | 329 | 0.0 | 0.0 | 0.00 | 0.66 | 0.00 | 94 | 1013.5 |
| 20260508081500 | 5 | 329 | 0.0 | 0.0 | 0.00 | 0.66 | 0.00 | 94 | 1013.4 |
| 20260508080023 | 5 | 329 | 0.0 | 0.0 | 0.00 | 0.66 | 0.00 | 93 | 1013.2 |
| 20260508074541 | 5 | 329 | 0.0 | 0.0 | 0.00 | 0.66 | 0.00 | 93 | 1013.1 |
| 20260508073057 | 5 | 329 | 0.0 | 0.0 | 0.00 | 0.66 | 0.00 | 93 | 1013.3 |
| 20260508071559 | 5 | 329 | 0.0 | 0.0 | 0.00 | 0.66 | 0.00 | 93 | 1013.1 |
| 20260508070008 | 5 | 329 | 0.0 | 0.0 | 0.00 | 0.66 | 0.00 | 92 | 1013.0 |
| 20260508064534 | 6 | 329 | 0.0 | 0.0 | 0.00 | 0.69 | 0.00 | 93 | 1013.1 |
| 20260508063044 | 6 | 329 | 0.0 | 0.0 | 0.00 | 0.69 | 0.00 | 93 | 1013.1 |
| 20260508061600 | 6 | 329 | 0.0 | 0.0 | 0.00 | 0.69 | 0.00 | 93 | 1013.2 |
| 20260508060059 | 7 | 329 | 0.0 | 0.0 | 0.00 | 0.69 | 0.00 | 93 | 1013.2 |
| 20260508054605 | 6 | 329 | 0.0 | 0.0 | 0.00 | 0.71 | 0.00 | 93 | 1012.9 |
| 20260508053027 | 6 | 329 | 0.0 | 0.0 | 0.00 | 0.71 | 0.00 | 93 | 1013.1 |
| 20260508051528 | 6 | 329 | 0.0 | 0.0 | 0.00 | 0.71 | 0.00 | 93 | 1013.2 |
| 20260508050048 | 7 | 329 | 0.0 | 0.0 | 0.00 | 0.71 | 0.00 | 93 | 1012.9 |
| 20260508044553 | 6 | 329 | 0.0 | 0.0 | 0.00 | 1.07 | 0.00 | 93 | 1012.7 |
| 20260508043105 | 6 | 329 | 0.0 | 0.0 | 0.00 | 1.07 | 0.00 | 92 | 1012.6 |
| 20260508041604 | 6 | 329 | 0.0 | 0.0 | 0.00 | 1.07 | 0.00 | 92 | 1012.6 |
| 20260508040017 | 7 | 329 | 0.0 | 0.0 | 0.00 | 1.07 | 0.00 | 92 | 1012.6 |
| 20260508034546 | 7 | 329 | 0.0 | 0.0 | 0.00 | 1.09 | 1.07 | 92 | 1012.5 |
| 20260508033054 | 7 | 329 | 0.0 | 0.0 | 0.00 | 1.09 | 1.07 | 91 | 1012.5 |
| 20260508031558 | 7 | 329 | 0.0 | 0.0 | 0.00 | 1.09 | 1.07 | 91 | 1012.5 |
| 20260508030054 | 7 | 329 | 0.0 | 0.0 | 0.00 | 1.09 | 1.07 | 90 | 1012.4 |
| 20260508024557 | 7 | 329 | 0.0 | 0.0 | 0.00 | 1.12 | 1.07 | 90 | 1012.5 |
| 20260508023101 | 8 | 329 | 0.0 | 0.0 | 0.00 | 1.12 | 1.07 | 89 | 1012.3 |
| 20260508021556 | 8 | 329 | 0.0 | 0.0 | 0.00 | 1.12 | 1.07 | 88 | 1011.7 |
| 20260508020057 | 8 | 329 | 0.0 | 0.0 | 0.00 | 1.12 | 1.07 | 86 | 1011.7 |
| 20260508014604 | 9 | 329 | 0.0 | 0.0 | 0.00 | 1.30 | 1.07 | 85 | 1011.5 |
| 20260508013006 | 10 | 329 | 0.0 | 0.0 | 0.00 | 1.30 | 1.07 | 83 | 1011.1 |
| 20260508011516 | 10 | 329 | 0.0 | 0.0 | 0.00 | 1.30 | 1.07 | 82 | 1011.0 |
| 20260508010036 | 10 | 329 | 0.0 | 0.0 | 0.00 | 1.30 | 1.07 | 80 | 1010.8 |
| 20260508004553 | 10 | 329 | 0.0 | 0.0 | 0.00 | 1.52 | 1.07 | 80 | 1010.7 |
| 20260508003108 | 11 | 329 | 0.0 | 0.0 | 0.00 | 1.52 | 1.07 | 77 | 1010.4 |
| 20260508001605 | 11 | 329 | 0.0 | 0.0 | 0.00 | 1.52 | 1.07 | 76 | 1010.3 |